• In Russia
  • List of Countries
  • For 7 days
  • Water Temperature
  • Satellite Maps
  • Weather Map
  • Weather Widgets
  • user-avatar
    Login

    Hourly Weather Hudzhan

    Today, 19 June, Tuesday

    Time Temperature Precipitation Wind Pressure Humidity
    00:00 +30°C° 0.1 mm 3 mps 714 mmHg 36%
    01:00 +29°C° 0.1 mm 2 mps 714 mmHg 36%
    02:00 +29°C° 0.1 mm 2 mps 714 mmHg 37%
    03:00 +28°C° 0.1 mm 2 mps 714 mmHg 37%
    04:00 +28°C° 0.1 mm 2 mps 714 mmHg 38%
    05:00 +27°C° 0.1 mm 2 mps 714 mmHg 38%
    06:00 +29°C° 0.1 mm 2 mps 714 mmHg 36%
    07:00 +30°C° 0.1 mm 2 mps 714 mmHg 34%
    08:00 +33°C° 0.1 mm 3 mps 715 mmHg 32%
    09:00 +34°C° 0.1 mm 3 mps 715 mmHg 30%
    10:00 +35°C° 0.1 mm 3 mps 715 mmHg 27%
    11:00 +36°C° 0.1 mm 3 mps 715 mmHg 25%
    12:00 +36°C° 0.3 mm 3 mps 715 mmHg 24%
    13:00 +37°C° 0.3 mm 2 mps 715 mmHg 23%
    14:00 +37°C° 0.3 mm 2 mps 715 mmHg 23%
    15:00 +35°C° 0.6 mm 3 mps 715 mmHg 27%
    16:00 +34°C° 0.6 mm 4 mps 715 mmHg 31%
    17:00 +33°C° 0.6 mm 5 mps 715 mmHg 36%
    18:00 +32°C° 0.2 mm 5 mps 715 mmHg 35%
    19:00 +32°C° 0.2 mm 5 mps 715 mmHg 35%
    20:00 +32°C° 0.2 mm 5 mps 715 mmHg 35%
    21:00 +30°C° 0.4 mm 4 mps 716 mmHg 36%
    22:00 +29°C° 0.4 mm 4 mps 716 mmHg 38%
    23:00 +29°C° 0.4 mm 4 mps 716 mmHg 39%

    Tomorrow, 20 June, Wednesday

    Time Temperature Precipitation Wind Pressure Humidity
    00:00 +28°C° 0.5 mm 4 mps 716 mmHg 41%
    01:00 +28°C° 0.5 mm 3 mps 716 mmHg 42%
    02:00 +27°C° 0.5 mm 3 mps 716 mmHg 43%
    03:00 +26°C° 0.4 mm 2 mps 717 mmHg 46%
    04:00 +25°C° 0.4 mm 2 mps 717 mmHg 49%
    05:00 +25°C° 0.4 mm 1 mps 717 mmHg 52%
    06:00 +26°C° 0.5 mm 1 mps 717 mmHg 48%
    07:00 +27°C° 0.5 mm 1 mps 717 mmHg 44%
    08:00 +28°C° 0.5 mm 2 mps 718 mmHg 40%
    09:00 +29°C° 0 mm 2 mps 718 mmHg 38%
    10:00 +30°C° 0 mm 2 mps 718 mmHg 36%
    11:00 +31°C° 0 mm 2 mps 718 mmHg 35%
    12:00 +32°C° 0.1 mm 2 mps 718 mmHg 33%
    13:00 +34°C° 0.1 mm 3 mps 718 mmHg 32%
    14:00 +34°C° 0.1 mm 3 mps 718 mmHg 30%
    15:00 +34°C° 0.2 mm 4 mps 718 mmHg 30%
    16:00 +34°C° 0.2 mm 4 mps 718 mmHg 30%
    17:00 +34°C° 0.2 mm 4 mps 718 mmHg 30%
    18:00 +33°C° 0.3 mm 4 mps 718 mmHg 33%
    19:00 +30°C° 0.3 mm 3 mps 718 mmHg 37%
    20:00 +29°C° 0.3 mm 3 mps 719 mmHg 40%
    21:00 +28°C° 0.1 mm 2 mps 719 mmHg 43%
    22:00 +28°C° 0.1 mm 1 mps 719 mmHg 45%
    23:00 +27°C° 0.1 mm 1 mps 719 mmHg 48%

    Day after tomorrow, 21 June, Thursday

    Time Temperature Precipitation Wind Pressure Humidity
    00:00 +26°C° 0 mm 1 mps 719 mmHg 47%
    01:00 +26°C° 0 mm 1 mps 719 mmHg 47%
    02:00 +26°C° 0 mm 1 mps 719 mmHg 47%
    03:00 +25°C° 0 mm 1 mps 719 mmHg 47%
    04:00 +25°C° 0 mm 1 mps 719 mmHg 48%
    05:00 +24°C° 0 mm 1 mps 719 mmHg 48%
    06:00 +25°C° 0 mm 2 mps 719 mmHg 47%
    07:00 +27°C° 0 mm 3 mps 719 mmHg 45%
    08:00 +28°C° 0 mm 3 mps 720 mmHg 44%
    09:00 +29°C° 0 mm 3 mps 719 mmHg 42%
    10:00 +30°C° 0 mm 3 mps 719 mmHg 40%
    11:00 +31°C° 0 mm 3 mps 719 mmHg 38%
    12:00 +33°C° 0.1 mm 3 mps 719 mmHg 36%
    13:00 +34°C° 0.1 mm 3 mps 718 mmHg 34%
    14:00 +34°C° 0.1 mm 3 mps 718 mmHg 32%
    15:00 +34°C° 0.2 mm 3 mps 718 mmHg 32%
    16:00 +34°C° 0.2 mm 3 mps 718 mmHg 31%
    17:00 +34°C° 0.2 mm 3 mps 717 mmHg 31%
    18:00 +32°C° 0.3 mm 2 mps 718 mmHg 33%
    19:00 +31°C° 0.3 mm 2 mps 718 mmHg 36%
    20:00 +30°C° 0.3 mm 2 mps 718 mmHg 39%
    21:00 +29°C° 0.3 mm 2 mps 718 mmHg 40%
    22:00 +29°C° 0.3 mm 2 mps 718 mmHg 42%
    23:00 +28°C° 0.3 mm 1 mps 718 mmHg 43%

    22 June, Friday

    Time Temperature Precipitation Wind Pressure Humidity
    00:00 +28°C° 0.2 mm 1 mps 718 mmHg 44%
    01:00 +27°C° 0.2 mm 1 mps 718 mmHg 46%
    02:00 +27°C° 0.2 mm 1 mps 718 mmHg 47%
    03:00 +26°C° 0.1 mm 1 mps 718 mmHg 48%
    04:00 +26°C° 0.1 mm 1 mps 718 mmHg 49%
    05:00 +25°C° 0.1 mm 1 mps 718 mmHg 50%
    06:00 +26°C° 0 mm 1 mps 718 mmHg 45%
    07:00 +28°C° 0 mm 1 mps 718 mmHg 40%
    08:00 +29°C° 0 mm 1 mps 719 mmHg 35%
    09:00 +30°C° 0.1 mm 1 mps 719 mmHg 32%
    10:00 +31°C° 0.1 mm 1 mps 718 mmHg 30%
    11:00 +32°C° 0.1 mm 2 mps 718 mmHg 27%
    12:00 +34°C° 0.2 mm 2 mps 718 mmHg 26%
    13:00 +35°C° 0.2 mm 2 mps 718 mmHg 25%
    14:00 +35°C° 0.2 mm 2 mps 717 mmHg 23%
    15:00 +35°C° 0.2 mm 3 mps 717 mmHg 23%
    16:00 +35°C° 0.2 mm 3 mps 717 mmHg 23%
    17:00 +35°C° 0.2 mm 3 mps 717 mmHg 23%
    18:00 +34°C° 0.1 mm 2 mps 717 mmHg 26%
    19:00 +32°C° 0.1 mm 2 mps 717 mmHg 30%
    20:00 +30°C° 0.1 mm 1 mps 717 mmHg 33%
    21:00 +29°C° 0 mm 1 mps 717 mmHg 33%
    22:00 +29°C° 0 mm 1 mps 717 mmHg 33%
    23:00 +28°C° 0 mm 1 mps 717 mmHg 34%

    23 June, Saturday

    Time Temperature Precipitation Wind Pressure Humidity
    00:00 +27°C° 0 mm 1 mps 717 mmHg 36%
    01:00 +27°C° 0 mm 1 mps 717 mmHg 38%
    02:00 +24°C° 0 mm 0 mps 717 mmHg 40%
    03:00 +24°C° 0 mm 0 mps 717 mmHg 40%
    04:00 +23°C° 0 mm 0 mps 717 mmHg 40%
    05:00 +25°C° 0 mm 1 mps 717 mmHg 40%
    06:00 +27°C° 0 mm 1 mps 717 mmHg 36%
    07:00 +29°C° 0 mm 1 mps 717 mmHg 32%
    08:00 +31°C° 0 mm 1 mps 717 mmHg 28%
    09:00 +32°C° 0 mm 1 mps 717 mmHg 26%
    10:00 +33°C° 0 mm 1 mps 717 mmHg 24%
    11:00 +34°C° 0 mm 1 mps 717 mmHg 21%
    12:00 +36°C° 0 mm 2 mps 717 mmHg 20%
    13:00 +36°C° 0 mm 2 mps 716 mmHg 19%
    14:00 +37°C° 0 mm 2 mps 716 mmHg 18%
    15:00 +37°C° 0 mm 3 mps 716 mmHg 18%
    16:00 +37°C° 0 mm 3 mps 716 mmHg 18%
    17:00 +37°C° 0 mm 3 mps 716 mmHg 18%
    18:00 +36°C° 0 mm 3 mps 716 mmHg 20%
    19:00 +34°C° 0 mm 2 mps 716 mmHg 23%
    20:00 +31°C° 0 mm 2 mps 716 mmHg 26%
    21:00 +31°C° 0 mm 2 mps 716 mmHg 27%
    22:00 +30°C° 0 mm 2 mps 716 mmHg 27%
    23:00 +30°C° 0 mm 2 mps 716 mmHg 28%

    24 June, Sunday

    Time Temperature Precipitation Wind Pressure Humidity
    00:00 +29°C° 0 mm 2 mps 715 mmHg 29%
    01:00 +28°C° 0 mm 1 mps 715 mmHg 30%
    02:00 +27°C° 0 mm 1 mps 715 mmHg 32%
    03:00 +27°C° 0 mm 1 mps 715 mmHg 32%
    04:00 +27°C° 0 mm 1 mps 715 mmHg 32%
    05:00 +26°C° 0 mm 1 mps 715 mmHg 32%
    06:00 +28°C° 0 mm 1 mps 716 mmHg 30%
    07:00 +30°C° 0 mm 1 mps 716 mmHg 27%
    08:00 +31°C° 0 mm 1 mps 716 mmHg 24%
    09:00 +32°C° 0 mm 2 mps 716 mmHg 23%
    10:00 +34°C° 0 mm 2 mps 716 mmHg 22%
    11:00 +35°C° 0 mm 3 mps 716 mmHg 22%
    12:00 +36°C° 0 mm 3 mps 716 mmHg 21%
    13:00 +36°C° 0 mm 3 mps 716 mmHg 21%
    14:00 +37°C° 0 mm 3 mps 715 mmHg 21%
    15:00 +37°C° 0.1 mm 4 mps 715 mmHg 21%
    16:00 +37°C° 0.1 mm 4 mps 715 mmHg 22%
    17:00 +37°C° 0.1 mm 4 mps 716 mmHg 22%
    18:00 +35°C° 0.2 mm 4 mps 716 mmHg 24%
    19:00 +34°C° 0.2 mm 3 mps 716 mmHg 26%
    20:00 +31°C° 0.2 mm 3 mps 716 mmHg 28%
    21:00 +30°C° 0.1 mm 3 mps 716 mmHg 28%
    22:00 +29°C° 0.1 mm 3 mps 716 mmHg 28%
    23:00 +28°C° 0.1 mm 3 mps 716 mmHg 28%
    Show more